Regional Weather Roundup
Issued by NWS Little Rock, AR

Home | Current Version | Previous Version | Graphics & Text | Print | Product List | Glossary On
Versions: 1 2 3 4 5 6 7 8 9 10 11 12 13 14 15 16 17 18 19 20 21 22 23 24 25 26 27 28 29 30 31 32 33 34 35 36 37 38 39 40 41 42 43 44 45 46 47 48 49 50
000
ASUS44 KLZK 301605
RWRLZK

WEATHER ROUNDUP FOR ARKANSAS
NATIONAL WEATHER SERVICE LITTLE ROCK AR
1100 AM CDT SAT AUG 30 2014

NOTE: "FAIR" INDICATES FEW OR NO CLOUDS BELOW 12,000 FEET WITH NO
SIGNIFICANT WEATHER AND/OR OBSTRUCTIONS TO VISIBILITY.

ARZ001-003-010-029-301700-
NORTHWEST ARKANSAS

CITY           SKY/WX    TMP DP  RH WIND       PRES   REMARKS
FAYETTEVILLE   CLOUDY    77  70  79 SW9       30.01S
FORT SMITH     MOSUNNY   82  71  69 VRB3      29.98S HX  86
HARRISON       CLOUDY    78  68  71 SW12      30.03R
BENTONVILLE    MOSUNNY   81  70  69 SW10G16   30.02S
ROGERS         PTSUNNY   80  70  71 S13       30.01F
SILOAM SPGS    MOSUNNY   81  66  61 SW10      30.01F
HIGHFILL       MOSUNNY   81  70  69 S12       30.00F
SPRINGDALE     PTSUNNY   75  70  83 S9        30.03S
$$

ARZ004-005-016-301700-
NORTH CENTRAL ARKANSAS

CITY           SKY/WX    TMP DP  RH WIND       PRES   REMARKS
BATESVILLE     CLOUDY    79  72  78 S3        30.02S
FLIPPIN        PTSUNNY   75  68  78 S6        30.02R
MTN HOME       PTSUNNY   73  71  93 SE6       30.02S
$$

ARZ040-041-301700-
WEST CENTRAL ARKANSAS

CITY           SKY/WX    TMP DP  RH WIND       PRES   REMARKS
MENA           CLOUDY    82  72  69 CALM      30.02F HX  87
MOUNT IDA      CLOUDY    80  71  74 SW5       30.00R
$$

ARZ009-017-025-026-028-301700-
NORTHEAST ARKANSAS

CITY           SKY/WX    TMP DP  RH WIND       PRES   REMARKS
CORNING          N/A     77  75  94 SW10      30.03R
JONESBORO      LGT RAIN  79  73  82 SW9       30.03R
NEWPORT        CLOUDY    81  74  79 S8        30.04R HX  86
WALNUT RIDGE   CLOUDY    79  72  78 SW9       30.02S
BLYTHEVILLE    CLOUDY    80  74  81 SW7       30.04S HX  85
$$

ARZ022-023-033-042-044-301700-
CENTRAL ARKANSAS

CITY           SKY/WX    TMP DP  RH WIND       PRES   REMARKS
LITTLE ROCK    CLOUDY    80  70  71 S5        30.02S
N LITTLE ROCK  PTSUNNY   80  71  74 SW7       30.02S
JACKSONVILLE   CLOUDY    80  72  75 S5        30.02S
SEARCY         CLOUDY    79  74  84 SW6       30.03S
HOT SPRINGS      N/A     80  72  76 W5        30.02S
RUSSELLVILLE   PTSUNNY   81  73  76 CALM      30.01F HX  86
CLINTON        FAIR      79  75  89 CALM      30.03S
$$

ARZ036-301700-
EAST ARKANSAS

CITY           SKY/WX    TMP DP  RH WIND       PRES   REMARKS
WEST MEMPHIS   LGT RAIN  78  76  93 SW3       30.03F
$$

ARZ050-053-066-070-073-301700-
SOUTHWEST ARKANSAS

CITY           SKY/WX    TMP DP  RH WIND       PRES   REMARKS
ARKADELPHIA    FAIR      83  73  71 CALM      30.01S HX  89
CAMDEN         CLOUDY    81  72  74 S3        30.02R
TEXARKANA      PTSUNNY   81  72  74 CALM      30.00S
EL DORADO      CLOUDY    78  73  84 SE8       30.02R
DE QUEEN       MOSUNNY   80  72  76 CALM      29.98S
$$

ARZ056-057-069-301700-
SOUTHEAST ARKANSAS

CITY           SKY/WX    TMP DP  RH WIND       PRES   REMARKS
PINE BLUFF     CLOUDY    78  72  81 S6        30.03S
STUTTGART      CLOUDY    79  72  78 S8        30.04S
MONTICELLO     CLOUDY    78  73  84 SE3       30.03R

$$





USA.gov is the U.S. government's official web portal to all federal, state and local government web resources and services.